This is the latest recevied weather packets stored in our database for station/object KO4LFZ. If no packets are shown the sender has not sent any weather packets the latest 10 day(s).
| Time | Temp. | Humidity | Pressure | Rain* | Wind** | Luminosity | Snow |
|---|---|---|---|---|---|---|---|
| 1778196565 | 18.89° C | 41% | 1015.1 hPa | 0 mm | - | 97 W/m² | - |
| 1778196261 | 18.89° C | 40% | 1015.2 hPa | 0 mm | - | 115 W/m² | - |
| 1778195959 | 18.89° C | 40% | 1015.2 hPa | 0 mm | - | 115 W/m² | - |
| 1778195655 | 18.89° C | 42% | 1015.1 hPa | 0 mm | - | 130 W/m² | - |
| 1778195352 | 18.89° C | 40% | 1015 hPa | 0 mm | - | 148 W/m² | - |
| 1778195049 | 18.89° C | 40% | 1015.2 hPa | 0 mm | - | 168 W/m² | - |
| 1778194749 | 18.89° C | 40% | 1015.2 hPa | 0 mm | - | 168 W/m² | - |
| 1778194446 | 18.89° C | 41% | 1015.3 hPa | 0 mm | - | 185 W/m² | - |
| 1778194142 | 18.89° C | 41% | 1015.1 hPa | 0 mm | - | 209 W/m² | - |
| 1778193838 | 18.89° C | 41% | 1015.4 hPa | 0 mm | - | 224 W/m² | - |
| 1778193534 | 18.89° C | 41% | 1015.1 hPa | 0 mm | - | 236 W/m² | - |
| 1778193231 | 18.89° C | 41% | 1015.4 hPa | 0 mm | - | 246 W/m² | - |
| 1778192928 | 18.89° C | 41% | 1015.3 hPa | 0 mm | - | 258 W/m² | - |
| 1778192624 | 18.89° C | 42% | 1015.3 hPa | 0 mm | - | 284 W/m² | - |
| 1778192321 | 18.89° C | 42% | 1015.3 hPa | 0 mm | - | 292 W/m² | - |
| 1778192018 | 19.44° C | 41% | 1015.3 hPa | 0 mm | - | 293 W/m² | - |
| 1778191714 | 19.44° C | 41% | 1015.3 hPa | 0 mm | - | 313 W/m² | - |
| 1778191412 | 18.89° C | 42% | 1015.3 hPa | 0 mm | - | 294 W/m² | - |
| 1778191107 | 19.44° C | 38% | 1015.5 hPa | 0 mm | - | 319 W/m² | - |
| 1778190805 | 19.44° C | 36% | 1015.3 hPa | 0 mm | - | 347 W/m² | - |
| 1778190502 | 19.44° C | 38% | 1015.4 hPa | 0 mm | - | 386 W/m² | - |
| 1778190200 | 18.89° C | 39% | 1015.4 hPa | 0 mm | - | 421 W/m² | - |
| 1778189894 | 18.89° C | 41% | 1015.4 hPa | 0 mm | - | 430 W/m² | - |
| 1778189591 | 18.89° C | 42% | 1015.3 hPa | 0 mm | - | 418 W/m² | - |
| 1778189289 | 20° C | 38% | 1015.3 hPa | 0 mm | - | 430 W/m² | - |
* Rain latest hour (hover to see other rain measurements)
** Current wind speed in m/s (hover to see current wind gust speed)